Wind_Speed
13 15 7 10 9 13 16 17 16 15 17 17 19 18 9 5 6 7 8 9 12 13 14 20 22 24 26 27 28 29 26 29 34 32 30 30 24 27 22 19 18 13 12 18
11 10 12 15 16 17 19 19 21 21 21 18 17 9 3 5 5 5 6 10 12 14 17 19 24 25 25 26 29 28 26 28 30 32 30 28 32 37 35 32 26 22 19 17
9 4 8 11 16 19 21 19 17 14 15 9 14 3 3 4 5 5 7 10 12 12 16 20 22 22 23 24 24 26 28 31 33 33 36 35 32 41 36 36 39 37 34 28
4 2 9 2 8 9 9 8 9 10 10 11 8 10 9 8 6 7 9 9 10 14 17 19 19 21 21 22 25 28 31 32 32 31 33 34 36 36 34 34 41 41 38 32
7 10 9 8 4 3 4 8 2 6 2 6 9 11 9 8 9 8 8 10 11 13 15 16 19 21 21 24 27 29 30 31 33 33 33 35 36 34 33 38 39 39 41 37
5 8 6 5 4 6 2 10 3 5 4 7 8 5 5 8 8 8 10 10 12 14 15 18 21 20 23 25 28 29 29 30 32 33 34 34 32 33 32 35 34 35 38 37
10 6 2 4 7 2 5 4 8 7 5 8 2 5 10 8 8 10 9 9 10 13 16 19 20 21 23 25 27 26 29 30 33 34 33 33 33 33 32 32 32 35 37 41
6 5 6 11 2 4 5 4 5 7 9 14 13 10 10 9 8 10 10 10 10 13 15 18 21 22 22 23 22 23 26 30 32 32 33 33 32 32 33 30 31 31 31 32
4 4 5 6 7 5 5 5 6 8 11 13 12 10 10 9 9 11 10 10 12 14 16 19 21 22 20 18 20 20 23 25 28 32 31 31 34 33 30 30 29 27 27 27
6 6 7 6 7 7 8 8 8 9 11 11 11 10 10 8 8 9 10 11 13 15 18 20 21 23 22 20 19 20 22 22 23 24 29 32 29 31 32 31 26 26 26 24
4 7 7 7 7 7 9 9 10 10 10 11 11 10 10 9 9 10 11 12 14 16 17 19 19 21 22 21 18 19 21 21 22 22 22 21 29 31 28 32 30 26 22 25
4 7 6 7 7 8 8 8 9 10 11 11 12 10 12 10 10 10 11 11 14 16 16 17 19 20 21 21 21 20 20 20 21 20 20 20 19 17 23 26 27 28 28 24
4 8 12 10 9 10 8 10 11 11 12 11 12 12 12 11 10 10 11 13 14 13 14 15 16 18 19 18 19 19 20 19 19 19 19 18 18 17 16 13 22 26 23 25
11 11 9 10 6 10 12 14 14 14 12 12 12 11 11 11 11 11 11 11 12 13 14 14 15 17 16 16 17 17 16 18 17 18 17 17 17 17 16 16 16 17 18 22
1 1 10 12 12 10 13 14 11 10 10 10 10 10 10 10 10 10 10 10 11 13 14 14 15 16 15 15 14 16 16 15 15 15 15 15 15 14 14 15 15 15 15 16
9 12 12 11 11 11 11 10 9 8 9 10 10 10 10 11 11 11 11 11 11 13 13 14 14 15 16 15 14 13 13 15 14 13 14 14 14 14 14 14 13 13 14 17
11 11 11 10 9 9 8 8 9 10 11 10 11 11 11 11 11 11 11 11 11 11 10 12 12 14 13 14 12 12 12 12 13 13 13 14 13 13 12 12 11 11 11 10
4 8 8 9 9 8 8 10 10 11 10 11 12 11 9 8 9 8 7 7 8 10 11 10 10 9 11 11 11 11 11 12 13 13 12 13 12 12 12 12 11 12 11 9
3 8 8 9 10 10 10 10 11 13 12 12 12 11 10 9 8 7 5 4 3 6 9 8 9 10 11 12 12 11 13 13 12 12 12 12 12 12 12 12 12 12 12 12
8 9 11 11 12 13 13 12 12 12 12 13 13 11 10 8 7 5 6 8 7 6 6 7 8 10 11 12 13 12 12 12 12 12 12 12 13 13 12 12 13 13 12 12
11 13 13 13 13 12 12 13 14 13 12 12 11 10 9 8 5 3 5 5 5 4 4 7 9 9 10 11 11 11 12 12 12 13 13 13 13 14 14 13 13 13 13 13
11 12 13 14 14 13 12 12 13 14 12 11 11 11 10 7 5 4 7 7 4 5 4 5 6 9 9 12 10 11 12 13 13 14 14 15 15 15 16 16 15 14 13 14
11 12 13 13 13 14 12 12 12 12 12 11 10 8 4 5 3 1 4 3 3 3 4 5 7 9 11 10 10 11 12 13 14 15 15 16 17 18 18 19 18 18 17 15
13 13 13 13 14 14 13 11 12 11 10 9 8 7 4 4 3 3 4 2 2 3 3 4 6 9 10 10 11 12 13 14 15 15 17 17 17 18 19 19 19 19 18 16
13 14 14 15 14 12 14 14 13 12 10 9 8 5 2 2 3 5 3 3 3 3 5 8 9 10 10 11 12 13 14 15 16 17 16 16 18 17 17 18 17 17 17 17
15 14 14 13 11 14 13 13 10 11 10 9 6 5 4 3 3 4 5 4 5 4 5 7 8 10 10 11 12 13 14 15 15 15 16 16 17 17 17 17 17 18 18 19
12 13 13 11 11 11 11 9 10 9 5 8 8 5 5 5 5 5 4 4 4 5 6 7 8 10 11 12 12 12 13 13 13 14 15 15 15 16 16 17 17 18 17 17
Wind_Direction
269 286 244 274 240 233 237 231 253 272 283 292 296 302 358 9 357 0 9 1 4 356 1 350 355 355 358 357 355 355 355 357 358 1 14 21 20 32 42 53 52 79 157 176
270 269 264 259 255 255 253 254 266 275 284 304 305 344 351 31 359 4 5 9 5 5 358 352 359 357 357 358 358 0 7 9 6 12 20 24 36 42 42 47 50 56 66 89
263 286 283 269 251 252 258 259 267 268 278 332 304 214 31 47 36 21 18 16 11 4 0 1 359 357 1 360 5 11 17 18 18 20 28 26 32 46 45 46 48 43 47 54
263 233 248 53 50 334 316 303 279 292 319 340 68 83 71 45 55 43 29 18 17 4 4 4 360 6 9 12 16 19 23 24 24 28 35 36 37 39 39 48 53 46 39 43
239 247 252 181 71 25 356 293 339 283 308 123 120 128 77 62 58 50 39 36 23 12 10 5 9 15 18 21 23 24 24 23 27 30 36 41 43 41 42 49 50 52 49 40
219 257 260 62 62 354 341 260 28 312 248 172 181 236 97 65 59 58 50 48 38 26 19 21 17 21 27 26 25 24 22 26 31 34 37 40 42 44 47 52 53 56 53 47
226 244 122 18 334 12 223 40 342 322 285 170 136 60 102 94 75 60 49 45 53 42 30 24 23 28 31 28 27 24 29 33 36 36 38 40 43 43 46 49 51 49 51 47
231 239 231 3 189 317 18 50 16 10 110 105 103 102 96 86 74 65 52 51 55 53 45 35 32 32 35 31 25 32 37 39 38 38 38 38 41 41 41 43 45 44 47 46
9 46 69 43 58 38 35 75 74 79 94 112 113 105 97 88 76 65 61 59 57 56 53 45 39 36 36 34 34 34 39 42 44 42 39 40 40 38 38 40 42 41 43 43
193 93 79 83 83 68 64 82 89 96 104 104 106 101 97 92 84 81 69 62 61 58 55 48 42 40 37 32 35 37 40 41 42 45 45 42 42 43 41 35 37 42 39 40
96 126 118 98 90 94 93 92 96 96 100 103 104 97 96 90 83 78 72 66 64 60 55 49 45 42 38 34 33 41 43 41 41 40 42 51 52 47 48 45 44 42 45 46
65 118 89 102 117 119 110 106 106 108 106 104 107 107 102 92 86 81 73 69 66 61 56 50 45 40 35 34 37 39 41 39 38 41 40 40 42 55 53 55 52 50 49 50
120 76 91 112 118 129 125 120 114 112 111 111 111 113 110 109 105 101 85 74 69 67 64 57 49 41 33 32 35 40 41 36 36 38 40 39 40 39 39 48 37 41 44 43
115 116 115 142 130 128 124 120 119 115 116 118 121 120 119 112 103 88 77 71 68 64 57 53 49 40 29 32 38 37 41 40 41 38 34 34 34 34 35 33 31 31 28 32
173 191 118 124 129 129 131 134 131 126 127 124 125 126 122 112 101 93 84 80 72 60 49 43 40 30 24 22 33 40 39 34 34 36 34 32 33 32 31 29 28 26 21 20
124 120 129 135 143 148 148 149 137 128 120 113 110 105 106 108 101 86 68 57 65 52 39 31 27 18 16 18 19 32 32 29 29 29 28 27 29 26 24 24 24 22 21 10
144 150 151 151 153 154 156 143 148 148 144 135 132 129 121 112 100 84 74 70 67 57 43 36 26 19 21 20 16 24 21 21 22 22 23 19 16 15 13 13 12 9 18 22
163 159 163 158 158 154 144 144 141 143 135 128 111 105 97 91 103 100 86 79 73 60 47 34 25 24 17 15 17 23 22 20 19 18 13 11 5 4 1 357 358 356 351 352
156 154 141 139 147 147 144 136 122 112 113 121 119 112 109 109 110 102 98 100 104 67 40 28 28 31 26 24 27 25 24 19 15 14 9 357 1 355 353 352 347 338 336 334
120 117 121 117 118 127 119 113 123 122 128 128 125 122 116 113 114 108 92 75 59 67 42 29 31 33 27 19 22 23 17 11 5 1 360 352 352 343 343 341 340 336 333 328
108 107 109 113 112 118 131 135 135 133 134 133 133 131 126 124 125 139 200 86 76 73 56 45 39 29 20 17 12 9 3 355 350 345 341 340 336 335 332 331 328 327 325 324
126 123 123 126 126 123 128 131 132 131 131 128 127 127 128 128 131 97 67 73 99 76 51 35 28 12 6 6 356 350 343 338 332 329 327 325 322 320 318 317 314 314 315 315
128 131 129 132 136 132 129 129 130 133 132 134 135 144 140 124 121 129 131 109 90 44 23 43 353 349 354 354 343 340 337 332 329 327 323 321 318 314 311 309 308 306 303 301
134 136 134 134 136 137 132 134 131 128 128 132 141 143 133 130 126 88 84 82 53 14 334 357 350 2 3 346 341 337 333 330 327 326 323 318 318 317 313 312 308 307 308 308
142 142 143 148 149 144 139 140 136 140 148 141 143 146 124 73 41 74 48 68 9 9 87 29 12 3 350 341 338 333 329 325 327 322 324 325 319 321 319 319 324 328 320 312
151 153 156 157 145 146 147 154 150 155 157 137 126 122 109 90 79 85 78 73 54 27 8 1 356 354 345 339 333 328 326 325 326 325 325 321 321 320 319 320 319 317 317 319
150 150 149 140 141 143 152 153 151 148 157 149 130 123 106 97 88 79 64 45 28 13 0 351 345 345 341 337 333 331 329 327 330 326 325 324 322 321 320 318 316 315 314 315
Height
721 719 722 726 724 724 724 727 731 723 722 721 718 720 728 742 744 748 758 763 763 762 759 758 753 747 739 733 726 718 711 700 686 677 669 662 658 647 644 639 639 639 642 645
732 727 726 728 724 721 720 720 719 717 719 721 723 728 738 748 753 759 767 768 769 767 766 763 755 749 743 736 729 722 714 706 698 686 676 671 662 655 653 649 649 648 647 645
742 729 733 733 723 719 714 712 715 726 724 727 733 746 750 756 763 771 774 774 774 773 770 765 761 756 749 742 735 727 719 710 702 694 683 678 674 666 668 664 661 661 661 659
742 750 745 723 726 731 727 723 723 730 733 745 750 761 768 774 774 778 780 780 778 777 774 770 766 760 754 747 740 732 724 719 712 706 699 693 687 679 680 676 672 676 676 675
746 729 719 731 752 757 756 741 747 749 751 758 763 768 778 781 783 785 786 784 784 782 778 775 769 764 758 751 745 739 733 728 722 716 710 705 701 701 696 687 687 690 689 689
737 744 731 749 749 751 756 744 756 754 750 761 765 753 774 786 787 788 788 787 787 784 782 777 772 768 763 758 753 748 743 738 733 727 722 718 716 712 710 705 706 704 702 701
739 741 738 756 761 757 753 756 765 764 760 762 765 777 786 790 791 791 790 789 788 788 785 781 777 772 768 765 761 759 753 747 741 737 733 730 727 723 721 720 718 713 709 709
737 739 735 764 756 757 769 771 771 767 765 774 782 787 790 793 794 794 793 792 790 789 787 784 780 776 774 772 771 766 762 757 751 748 744 740 737 734 732 729 727 725 724 723
750 752 770 772 774 776 775 774 776 776 778 781 786 790 793 795 797 798 797 794 792 791 790 787 785 782 778 778 775 772 767 764 761 758 754 751 746 744 742 741 739 738 737 737
750 766 771 774 777 780 780 781 783 784 785 788 790 794 796 798 800 801 799 797 795 794 793 792 790 788 785 782 779 776 772 770 768 766 765 762 759 757 754 753 751 750 749 748
759 767 773 776 780 783 786 787 789 790 791 793 795 798 800 802 804 802 801 801 799 798 798 797 796 795 792 790 787 783 781 779 776 774 773 772 771 770 768 768 766 763 762 761
752 762 767 777 782 786 788 791 793 794 796 798 800 802 805 807 807 806 806 805 803 802 803 802 801 800 798 796 793 790 788 786 784 782 781 779 777 778 779 777 775 773 771 770
768 772 775 781 785 789 791 793 795 797 800 801 804 805 807 808 810 810 808 807 807 808 808 808 808 806 805 802 800 797 794 793 791 789 787 787 786 785 784 783 780 780 780 778
774 777 782 783 787 790 793 795 797 799 802 804 805 807 807 809 810 811 812 812 812 812 812 812 812 812 810 808 805 802 800 799 797 796 794 792 791 791 790 788 787 786 786 784
777 776 777 785 789 792 794 796 798 801 803 805 806 807 809 811 814 815 816 816 816 816 817 817 816 815 814 812 810 807 805 805 802 801 800 799 797 796 795 793 792 791 791 790
779 781 784 787 790 792 794 796 798 802 805 809 811 813 814 816 818 819 820 820 819 821 822 821 820 818 816 814 812 811 810 810 807 806 804 803 801 801 799 797 796 797 798 798
780 783 785 787 789 791 793 796 801 804 807 810 812 814 816 818 820 823 825 825 826 827 827 825 824 823 821 818 817 815 814 812 811 809 808 807 806 805 804 802 801 800 799 799
777 779 782 785 789 792 796 799 802 805 808 811 815 818 821 822 825 828 829 829 830 829 828 829 829 827 825 822 821 819 817 815 813 813 812 811 810 808 808 806 803 802 801 801
780 781 783 787 791 795 799 802 806 809 813 816 819 822 824 827 829 830 831 831 830 830 832 832 831 829 827 825 823 822 820 819 818 816 816 815 813 811 809 808 807 806 805 803
783 785 788 791 795 798 802 806 810 814 817 819 822 824 827 829 831 832 833 833 833 834 834 833 832 831 830 828 826 824 823 822 821 819 818 817 815 813 811 810 808 807 805 803
788 791 794 797 800 804 807 810 813 817 819 821 824 827 829 831 832 833 833 831 836 835 835 835 834 833 832 830 828 827 826 825 823 822 820 818 816 814 812 810 809 807 805 803
792 796 799 802 805 808 811 813 816 818 821 823 826 828 830 833 834 835 834 834 837 836 837 836 836 835 834 832 830 829 828 827 825 823 821 819 816 814 812 810 808 806 805 803
795 798 801 804 807 810 813 816 818 820 823 826 828 830 830 831 832 832 832 837 837 837 837 836 836 835 834 833 832 830 829 827 825 823 821 819 816 814 812 809 807 805 803 801
797 800 803 806 809 812 814 818 820 823 825 828 830 831 832 833 834 835 836 837 837 838 838 837 836 835 834 833 832 830 829 827 825 823 821 819 816 813 811 808 805 803 801 798
798 802 805 807 808 811 814 818 821 824 826 828 831 832 834 834 835 835 837 837 838 838 837 837 837 836 835 834 833 831 830 828 825 824 821 819 816 813 811 808 805 802 800 798
798 801 803 804 805 810 814 817 819 822 824 828 831 833 834 836 836 837 838 838 839 839 839 838 838 837 836 834 833 831 830 827 825 823 821 819 816 813 811 808 806 803 801 798
798 800 802 805 808 811 814 816 819 822 825 827 830 833 835 836 838 838 839 839 840 840 840 839 838 837 836 835 833 831 829 827 825 823 821 819 816 814 811 809 806 803 800 798